FENGYUN 1C DEB

Satellite information

Favourite Embed

Satellite Type and Status

DEBRISIN ORBIT

Key statistics

Satellite FENGYUN 1C DEB at a glance.

Uptime

9495

Days in orbit

Revolutions

≈ 13.7

Per day

Orbit

SSO

Sun Synchronous Orbit

Inclination

99.7

Latest

Satellite identification and parameters

Extended collection of information and parameters for FENGYUN 1C DEB.

Object identification

Identified? True

Debris? True

Object name: FENGYUN 1C DEB

International designator: 1999-025AEE

Object number (NORAD): 30415

Object ID (CCSDS): 30415

Country: PEOPLES REPUBLIC OF CHINA (PRC)

Current information (Y/N): Y

RCS size: SMALL

Orbital parameters

Period: 105.235 minutes

Inclination: 99.6507 deg

SMA: 7383.581 km

Apoapsis: 1182.17 km

Periapsis: 828.723 km

RAAN: 187.8912 deg

Eccentricy: 0.0239347

Argument of periapsis: 112.5309 deg

Mean anomaly: 304.9845 deg

Mean motion: 13.68365627 rev/day

Mean motion (dot): 0.00001261 rev/day2

B* drag term: 0.0012491 1/REarth

Two-line elements (TLE)

Creation date: May 8, 2025, 3:01 a.m.

Reference frame: TEME

Reference center: EARTH

Epoch: May 7, 2025, 9:06 p.m. UTC

TLE line 0: 0 FENGYUN 1C DEB

TLE line 1: 1 30415U 99025AEE 25127.87978804 .00001261 00000-0 12491-2 0 9995

TLE line 2: 2 30415 99.6507 187.8912 0239347 112.5309 304.9845 13.68365627908845

Live tracking on map

Real-time ground track for satellite FENGYUN 1C DEB.

In-orbit conjunctions

A list of the most updated potential collisions computed for object FENGYUN 1C DEB.

Target Orbit TCA Probability of collision Miss distance Type
COSMOS 1275 DEB LEO 2024-11-09 13:52:18 0.0002729628 687.0 (m) DEBRIS
COSMOS 800 LEO 2024-09-15 10:21:49 0.000294503 339.0 (m) PAYLOAD
FENGYUN 1C DEB SSO 2024-07-25 23:24:52 0.0001003201 355.0 (m) DEBRIS

Associated space launch

Chinese polar orbiting meteorological satellite

FENGYUN 1C DEB was lifted into orbit during the mission ‘Long March 4B | Feng Yun 1C’, on board a Long March 4B space rocket.

The launch took place on May 10, 1999, 1:33 a.m. from Launch Complex 7.

For more information about the launch, click the button.

Launch to space Long March 4B | Feng Yun 1C
Long March 4B | Feng Yun 1C

Agency: N/A

Status: Launch Successful

Launch date: May 10, 1999, 1:33 a.m. UTC

Rocket: Long March 4B

Launch pad: Launch Complex 7

Location: Taiyuan Satellite Launch Center, People's Republic of China

...

Latest news about this satellite

There are no fresh news available about this satellite. Check back as we update our databases every day.


Newsletter sign-up

Weekly statistics, charts and insights to help you stay on top of the space industry.